This is the latest recevied weather packets stored in our database for station/object WX7FGZ-3. If no packets are shown the sender has not sent any weather packets the latest 10 day(s).
| Time | Temp. | Humidity | Pressure | Rain* | Wind** | Luminosity | Snow |
|---|---|---|---|---|---|---|---|
| 1778007954 | 10.56° C | 54% | 1005.3 hPa | 0 mm | - | - | - |
| 1778007654 | 10.56° C | 48% | 1005.3 hPa | 0 mm | - | - | - |
| 1778007353 | 11.11° C | 45% | 1005.3 hPa | 0 mm | - | - | - |
| 1778006453 | 12.22° C | 42% | 1005.1 hPa | 0 mm | - | - | - |
| 1778005853 | 12.22° C | 42% | 1005.2 hPa | 0 mm | - | - | - |
| 1778005552 | 12.22° C | 46% | 1005.2 hPa | 0 mm | - | - | - |
| 1778005252 | 11.11° C | 45% | 1005.3 hPa | 0 mm | - | - | - |
| 1778004951 | 11.67° C | 43% | 1005.4 hPa | 0 mm | - | - | - |
| 1778004350 | 12.22° C | 42% | 1005.3 hPa | 0 mm | - | - | - |
| 1778003750 | 11.11° C | 43% | 1005.5 hPa | 0 mm | - | - | - |
| 1778003149 | 11.11° C | 46% | 1005.8 hPa | 0 mm | - | - | - |
| 1778002549 | 10° C | 51% | 1005.8 hPa | 0 mm | - | - | - |
| 1778002249 | 10° C | 51% | 1005.8 hPa | 0 mm | - | - | - |
| 1778001948 | 10° C | 50% | 1005.8 hPa | 0 mm | - | - | - |
| 1778001348 | 9.44° C | 52% | 1005.7 hPa | 0 mm | - | - | - |
| 1778001047 | 9.44° C | 50% | 1005.8 hPa | 0 mm | - | - | - |
| 1778000747 | 9.44° C | 53% | 1005.7 hPa | 0 mm | - | - | - |
| 1778000447 | 9.44° C | 50% | 1005.6 hPa | 0 mm | - | - | - |
| 1778000147 | 9.44° C | 51% | 1005.6 hPa | 0 mm | - | - | - |
| 1777999846 | 10° C | 51% | 1005.6 hPa | 0 mm | - | - | - |
| 1777999546 | 10° C | 51% | 1005.6 hPa | 0 mm | - | - | - |
| 1777999246 | 10° C | 53% | 1005.6 hPa | 0 mm | - | - | - |
| 1777998946 | 9.44° C | 54% | 1005.6 hPa | 0 mm | - | - | - |
| 1777998645 | 8.89° C | 52% | 1005.7 hPa | 0 mm | - | - | - |
| 1777998345 | 9.44° C | 53% | 1005.8 hPa | 0 mm | - | - | - |
* Rain latest hour (hover to see other rain measurements)
** Current wind speed in m/s (hover to see current wind gust speed)